Weather past 2 weeks in Saipan, Northern Mariana Islands

Now
81 °F

Passing clouds.


Feels Like: 88 °F
Forecast: 77 / 83 °F
Wind: 7 mph from Southwest

Location: Saipan International Airport

Current Time: Sep 2, 2014 at 9:45:18 PM

Latest Report: Sep 2, 2014 at 8:54 PM


Visibility: 10 mi

Pressure: 29.88 "Hg

Humidity: 88%

Dew point: 77 °F

Location of SaipanLocation

Historic Weather in Saipan — Graph

°F

Saipan temperature yesterday

Maximum temperature yesterday: 85 °F (at 9:54 AM)
Minimum temperature yesterday: 79 °F (at 3:54 AM)
Average temperature yesterday: 81 °F

Past Weeks' High & Low Weather Summary

 TemperatureHumidityPressure
High89 °F (Aug 24, 2:54 PM)97% (Sep 1, 11:54 PM)29.99 "Hg (Sep 1, 11:54 PM)
Low76 °F (Aug 30, 4:54 AM)61% (Sep 2, 10:54 AM)29.75 "Hg (Sep 1, 3:09 AM)
Average83 °F83%29.89 "Hg
* Reported Aug 18 8:54 PM — Sep 2 8:05 PM, Saipan, Weather by CustomWeather, © 2014

Note: Actual official high and low records may vary slightly from our data, if they occured in-between our weather recording intervals... More about our weather records

Advertising

Saipan weather history for previous 24 hours

 ConditionsComfort  
Time TempWeatherWind HumidityBarometerVisibility
8:05 PM
Sep 2
81 °FPassing clouds.3 mph84%29.82 "Hg10 mi
7:54 PM81 °FThunderstorms. Passing clouds.6 mph79%29.88 "Hg10 mi
7:34 PM81 °FThunderstorms. Passing clouds.5 mph84%29.80 "Hg10 mi
6:54 PM80 °FPassing clouds.9 mph81%29.85 "Hg10 mi
6:28 PM81 °FBroken clouds.8 mph84%29.79 "Hg10 mi
6:02 PM81 °FLight rain. Mostly cloudy.15 mph89%29.78 "Hg10 mi
4:54 PM87 °FSunny.5 mph69%29.82 "Hg10 mi
3:54 PM87 °FPassing clouds.5 mph69%29.82 "Hg10 mi
2:54 PM87 °FScattered clouds.6 mph72%29.82 "Hg10 mi
1:54 PM86 °FBroken clouds.6 mph72%29.83 "Hg10 mi
1:01 PM86 °FCloudy.No wind70%29.78 "Hg10 mi
12:02 PM86 °FBroken clouds.6 mph70%29.79 "Hg10 mi
11:54 AM87 °FPartly sunny.7 mph67%29.85 "Hg10 mi
10:54 AM88 °FScattered clouds.3 mph61%29.86 "Hg10 mi
9:54 AM85 °FScattered clouds.3 mph75%29.86 "Hg10 mi
8:54 AM84 °FScattered clouds.3 mph80%29.86 "Hg10 mi
7:54 AM84 °FPassing clouds.3 mph83%29.85 "Hg10 mi
6:54 AM80 °FPassing clouds.No wind90%29.84 "Hg10 mi
5:54 AM79 °FClear.No wind90%29.84 "Hg10 mi
4:54 AM79 °FClear.No wind90%29.82 "Hg10 mi
3:54 AM80 °FClear.3 mph90%29.80 "Hg10 mi
2:54 AM79 °FClear.3 mph90%29.81 "Hg10 mi
1:54 AM79 °FClear.No wind94%29.82 "Hg10 mi
12:54 AM79 °FClear.3 mph94%29.84 "Hg10 mi
11:54 PM
Sep 1
79 °FClear.No wind97%29.86 "Hg10 mi
10:54 PM79 °FClear.5 mph94%29.88 "Hg10 mi
9:54 PM80 °FPassing clouds.3 mph90%29.89 "Hg10 mi
Weather by CustomWeather, © 2014

See weather overviewHow to use our weather pages